Location: Laan Hart van Zuid
(52.2563°N, 6.7904°E)
Time: 16:32:53
(UTC+02:00)

BlueWalker 3 - Pass Details

Date: 01 May 2024
Orbit: 482 x 494 km, 53.2° (Epoch: 20 May)

Event Time Altitude Azimuth Distance (km) Brightness Sun altitude
Rises 00:09:36 0° 282° (WNW) 2,581 6.0 -20.4°
Reaches altitude 10° 00:12:46 10° 254° (WSW) 1,696 4.7 -20.6°
Enters shadow 00:13:32 12° 243° (WSW) 1,577 4.4 -20.6°
